CYYR

Goose Bay Airport

ICAO Code CYYR
IATA Code YYR
Name Goose Bay Airport
Location Goose Bay, Newfoundland-and-Labrador, CA
Elevation 160 Feet / 48.8 Meters
Latitude 53.31919861
Longitude -60.42580032
METAR CYYR 240500Z 21002KT 15SM FEW018 FEW070 M15/M17 A2951 RMK SC1AC1 SLP999
Extra information Display Charts and CFS
Display NOTAMS
Runway Length Width Surface Elevation
08 11046 ft 209 ft ASP 160 ft
16 9580 ft 200 ft ASP 154 ft
26 11046 ft 209 ft ASP 153 ft
34 9580 ft 200 ft ASP 149 ft